Regional Weather Roundup
Issued by NWS State College, PA

Home | Current Version | Previous Version | Text Only | Print | Product List | Glossary On
Versions: 1 2 3 4 5 6 7 8 9 10 11 12 13 14 15 16 17 18 19 20 21 22 23 24 25 26 27 28 29 30 31 32 33 34 35 36 37 38 39 40 41 42 43 44 45 46 47 48 49 50
000
ASUS41 KCTP 240003
RWRCTP

REGIONAL WEATHER ROUNDUP
NATIONAL WEATHER SERVICE STATE COLLEGE PA
800 PM EDT WED JUL 23 2014

Note: "fair" indicates few or no clouds below 12,000 feet with no
significant weather and/or obstructions to visibility.

* = STATION THAT DOES NOT REPORT PRECIPITATION /E.G. RAIN...SNOW...ETC/
    THUNDER OR FOG.

PAZ002>004-007>009-013>016-020>023-029>032-240100-
WESTERN PENNSYLVANIA

CITY           SKY/WX    TMP DP  RH WIND       PRES   REMARKS
ERIE           CLOUDY    69  58  67 N14G20    29.99R
MEADVILLE      CLOUDY    66  60  81 NW5       30.00S
FRANKLIN*      CLOUDY    64  59  82 NW6       30.01R
NEW CASTLE       N/A     66  62  87 NW8       30.01R
BEAVER COUNTY  CLOUDY    66  63  88 N7        30.00R
BUTLER*        CLOUDY    66  61  82 W7        30.02R
PITTSBURGH INT CLOUDY    70  63  78 N16       29.98R
PITTSBURGH     CLOUDY    71  63  75 N12G21    29.96R
INDIANA*       CLOUDY    72  66  83 NW9G16    30.00R
LATROBE        MOCLDY    75  70  83 NW9       29.95R
WASHINGTON CO* MOCLDY    73  66  78 N6        29.97R
$$

PAZ004>006-010>012-017>019-024>028-033>037-041-042-045-046-049>053-240100-
CENTRAL PENNSYLVANIA

CITY           SKY/WX    TMP DP  RH WIND       PRES   REMARKS
BRADFORD       MOCLDY    66  59  78 NW12      29.98R
DUBOIS         CLOUDY    68  63  84 NW12G18   29.97R
CLEARFIELD     CLOUDY    72  66  81 NW8       29.95R
JOHNSTOWN      CLOUDY    72  64  76 NW15G25   29.98R
ALTOONA        PTCLDY    79  66  64 NW10      29.93R
STATE COLLEGE  NOT AVBL
WILLIAMSPORT   CLOUDY    77  68  73 VRB6      29.85R
SELINSGROVE    MOCLDY    81  69  67 NW6       29.85R
FT INDIANTOWN  CLOUDY    77  74  90 SW5       29.85R
CAPITAL CITY   CLOUDY    77  70  79 S6        29.84R
HARRISBURG     CLOUDY    78  70  76 VRB3      29.83R
YORK           CLOUDY    73  70  90 CALM      29.86R
$$

PAZ038>040-043-044-047-048-054-055-060>062-067>071-240100-
EASTERN PENNSYLVANIA

CITY           SKY/WX    TMP DP  RH WIND       PRES   REMARKS
SCRANTON       CLOUDY    76  68  76 VRB3      29.88R
MOUNT POCONO   CLOUDY    71  66  84 NW9       29.90R
ALLENTOWN      CLOUDY    74  70  87 SW5       29.84R
QUAKERTOWN*    CLOUDY    70  68  94 SW3       29.85S
READING        CLOUDY    75  69  81 S6        29.84S
LANCASTER      LGT RAIN  73  70  90 SW12      29.86R
COATESVILLE    LGT RAIN  68  68 100 S3        29.89F
POTTSTOWN      LGT RAIN  71  69  93 CALM      29.85F
BLUE BELL      CLOUDY    77  70  78 CALM      29.85R
DOYLESTOWN     TSTM      72  68  87 VRB7      29.83R FOG
WILLOW GROVE   NOT AVBL
NORTH PHILA    CLOUDY    87  70  56 VRB5      29.83R
PHILADELPHIA   CLOUDY    85  71  63 S8        29.82R THUNDER
$$


USA.gov is the U.S. government's official web portal to all federal, state and local government web resources and services.